Indian Mountain, AK

8:52 PM AKDT on July 24, 2017 (GMT -0800)
Indian Mountain

Weather History for PAIM - September, 2013

Change the Weather History Date:

Sunday, September 22, 2013

  Actual Average Record
Temperature  
Mean Temperature 27 °F -  
Max Temperature 30 °F 40 °F 54 °F (2001)
Min Temperature 22 °F 30 °F 22 °F (2013)
Degree Days  
Heating Degree Days 38    
Moisture  
Dew Point 21 °F    
Average Humidity 76    
Maximum Humidity 87    
Minimum Humidity 67    
Precipitation  
Precipitation 0.00 in - - ()
Sea Level Pressure  
Sea Level Pressure 29.44 in    
Wind  
Wind Speed 2 mph (SE)    
Max Wind Speed 7 mph    
Max Gust Speed -    
Visibility 10 miles    
Events      
Averages and records for this station are not official NWS values.
T = Trace of Precipitation, MM = Missing Value Source: NWS Daily Summary

Daily Weather History Graph

Daily Weather History Graph

Search for Another Location

Airport or City:

Trip Planner

Search our weather history database for the weather conditions in past years. The results will help you decide how hot, cold, wet, or windy it might be!

Date:

Astronomy

Sep. 22, 2013 Rise Set
Actual Time 7:58 AM AKDT 8:14 PM AKDT
Civil Twilight 7:07 AM AKDT 9:05 PM AKDT
Nautical Twilight 6:03 AM AKDT 10:08 PM AKDT
Astronomical Twilight 4:47 AM AKDT 11:22 PM AKDT
Moon 8:23 PM AKDT (9/22) 1:13 PM AKDT (9/22)
Length of Visible Light 13h 58m
Length of Day
12h 15m
Waning Gibbous, 87% of the Moon is Illuminated
Sep 22
Waning Gibbous
Sep 26
Last Quarter
Oct 4
New
Oct 11
First Quarter
Oct 18
Full

Hourly Weather History & Observations

Time (AKDT) Temp. Windchill Dew Point Humidity Pressure Visibility Wind Dir Wind Speed Gust Speed Precip Events Conditions
12:08 AM 26.6 °F - 21.2 °F 80% 29.34 in 10.0 mi Variable 1.2 mph - N/A   Overcast
12:48 AM 26.6 °F - 21.2 °F 80% 29.34 in 10.0 mi Calm Calm - N/A   Mostly Cloudy
12:55 AM 26.6 °F - 21.2 °F 80% 29.34 in 10.0 mi North 1.2 mph - N/A   Mostly Cloudy
1:55 AM 25.9 °F - 20.5 °F 80% 29.36 in 10.0 mi Variable 1.2 mph - N/A   Mostly Cloudy
2:55 AM 25.7 °F - 20.5 °F 81% 29.37 in 10.0 mi Variable 1.2 mph - N/A   Overcast
3:55 AM 25.7 °F - 20.5 °F 81% 29.37 in 10.0 mi Variable 2.3 mph - N/A   Overcast
4:55 AM 25.5 °F - 20.5 °F 81% 29.38 in 10.0 mi Variable 2.3 mph - N/A   Mostly Cloudy
5:55 AM 25.9 °F - 20.8 °F 81% 29.39 in 10.0 mi Calm Calm - N/A   Overcast
6:55 AM 24.8 °F - 21.4 °F 87% 29.39 in 10.0 mi Variable 1.2 mph - N/A   Mostly Cloudy
7:48 AM 24.8 °F - 21.2 °F 86% 29.40 in 10.0 mi Variable 1.2 mph - N/A   Overcast
7:55 AM 25.2 °F - 20.8 °F 84% 29.40 in 10.0 mi NW 1.2 mph - N/A   Overcast
8:55 AM 26.1 °F - 20.7 °F 80% 29.41 in 10.0 mi Variable 2.3 mph - N/A   Overcast
9:55 AM 25.9 °F 18.2 °F 21.2 °F 82% 29.42 in 10.0 mi SE 6.9 mph - N/A   Overcast
10:55 AM 26.8 °F 22.8 °F 20.3 °F 77% 29.43 in 10.0 mi ESE 3.5 mph - N/A   Overcast
11:55 AM 28.0 °F - 20.7 °F 74% 29.44 in 10.0 mi SSE 2.3 mph - N/A   Mostly Cloudy
12:55 PM 28.9 °F 25.2 °F 20.5 °F 71% 29.44 in 10.0 mi East 3.5 mph - N/A   Mostly Cloudy
1:08 PM 30.2 °F - 21.2 °F 69% 29.44 in 10.0 mi ENE 2.3 mph - N/A   Mostly Cloudy
1:48 PM 30.2 °F 26.7 °F 21.2 °F 69% 29.45 in 10.0 mi SE 3.5 mph - N/A   Mostly Cloudy
1:55 PM 30.2 °F 25.4 °F 20.5 °F 67% 29.45 in 10.0 mi ESE 4.6 mph - N/A   Mostly Cloudy
2:55 PM 30.2 °F 24.3 °F 20.3 °F 67% 29.46 in 10.0 mi SE 5.8 mph - N/A   Mostly Cloudy
3:55 PM 29.5 °F 25.9 °F 20.7 °F 70% 29.47 in 10.0 mi SE 3.5 mph - N/A   Partly Cloudy
4:55 PM 29.8 °F 26.3 °F 20.5 °F 68% 29.48 in 10.0 mi South 3.5 mph - N/A   Partly Cloudy
5:55 PM 30.6 °F 24.7 °F 21.4 °F 69% 29.49 in 10.0 mi ESE 5.8 mph - N/A   Mostly Cloudy
6:55 PM 30.0 °F 24.1 °F 21.2 °F 70% 29.51 in 10.0 mi SE 5.8 mph - N/A   Overcast
7:55 PM 29.3 °F - 21.0 °F 71% 29.52 in 10.0 mi SW 2.3 mph - N/A   Mostly Cloudy
8:55 PM 26.1 °F - 20.5 °F 79% 29.53 in 10.0 mi Variable 1.2 mph - N/A   Partly Cloudy
9:55 PM 25.9 °F - 19.2 °F 76% 29.55 in 10.0 mi Variable 2.3 mph - N/A   Mostly Cloudy
10:55 PM 24.3 °F 19.9 °F 17.4 °F 75% 29.56 in 10.0 mi Variable 3.5 mph - N/A   Scattered Clouds
11:55 PM 22.6 °F 18.0 °F 16.9 °F 79% 29.57 in 10.0 mi Variable 3.5 mph - N/A   Partly Cloudy